1520 visiteurs
Prévisions de votre ville :
Vigilance : 37 départements Mise à jour le 18/10/2019 à 06:08 - Voir la carte

Paris Roissy CDG (95380) le 18/10/2019 à 10:30 Choisir station

13°C 67 % SO Vit. moyenne 30 kmh/h

Relevés météo quotidiens pour la station de :

UTC
S: Synop
M: Metar
Loc T°C
(°C)
Td
(°C)
HR
(%)
Vis
(km)
Néb
(octa)
Vent
(km/h)
Pression
(mb)
Précipitations
(mm)
Temps
              MOY
10 min
DIR RAF 1h MESURE VAR SUR 3h    
S 00 h 02h 20.5 19.5 94 18 - 2 6 1019.3 +1.6/3h 5.0/6h - 0.2/3h -
S 01 h 03h 20.7 19.4 92 17 - 2 9 1019.5 +1.1/3h 0.0/1h -
S 02 h 04h 20.5 19.5 94 10 - - - 11 1019.7 +0.6/3h 0.0/1h -
S 03 h 05h 20.4 19.6 95 7 - - - 9 1020.0 +0.6/3h 0.0/3h -
S 04 h 06h 20.4 19.6 95 7 - - - 6 1020.4 +0.8/3h 0.0/1h -
S 05 h 07h 20.8 20.0 95 10 - - - 2 1020.6 +1.0/3h 0.0/1h -
S 06 h 08h 21.7 17.7 78 20 - 6 11 1021.0 +1.1/3h 5.0/12h - 0.0/3h - 4.5/24h -
S 07 h 09h 22.8 17.7 73 20 - 6 15 1021.4 +1.2/3h 0.0/1h -
S 08 h 10h 24.3 17.8 67 20 - 7 17 1021.7 +1.3/3h 0.0/1h -
S 09 h 11h 25.9 17.3 59 20 - 2 7 1021.9 +1.2/3h 0.0/3h -
S 10 h 12h 27.3 17.5 55 20 - 4 7 1021.6 +0.5/3h 0.0/1h -
S 11 h 13h 28.5 17.4 51 20 - 7 15 1021.3 -0.1/3h 0.0/1h -
S 12 h 14h 29.2 17.7 50 19 - 6 17 1020.9 -0.7/3h 0.0/6h - 0.0/3h -
S 13 h 15h 31.2 17.1 43 20 - 6 17 1020.2 -1.0/3h 0.0/1h -
S 14 h 16h 31.4 17.3 43 20 - 9 19 1019.9 -1.1/3h 0.0/1h -
S 15 h 17h 31.1 17.0 43 20 - 7 11 1019.6 -1.1/3h 0.0/3h -
S 16 h 18h 30.9 17.2 44 20 - 6 11 1019.3 -0.9/3h 0.0/1h -
S 17 h 19h 31.0 16.6 42 20 - 9 19 1019.3 -0.6/3h 0.0/1h -
S 18 h 20h 29.3 16.5 46 20 - 9 20 1019.9 +0.1/3h 0.0/12h - 0.0/3h -
S 19 h 21h 28.3 15.6 46 20 - 9 17 1020.2 +0.6/3h 0.0/1h -
S 20 h 22h 25.6 15.9 55 20 - 4 6 1020.9 +1.1/3h 0.0/1h -
S 21 h 23h 24.0 15.8 60 20 - 9 13 1021.3 +1.0/3h 0.0/3h -
S 22 h 00h 23.0 15.1 61 20 - 4 9 1021.7 +1.1/3h 0.0/1h -
S 23 h 01h 22.7 13.5 56 20 - 11 17 1022.1 +0.9/3h 0.0/1h -
evolution des temperatures
cumul des precipitations
vent moyen et rafales
pression atmospherique

Un tiret (-) signifie que les données ne sont pas disponibles.

Passez la souris sur les pictos temps pour avoir plus de précisions. Passez les flèches sur l'icône de la direction du vent pour voir la direction précise en degrés.

Les données de l'heure en cours sont disponibles à partir de H+15 minutes.


S signifie station Synop, plus complète qu'une station Metar (M). Il y a +1h de différence entre l'heure UTC et l'heure légale en hiver et +2h en été.

Td est la mesure du point de rosée.

HR est l'humidité relative/p>

Vis est la visibilité

Néb est la nébulosité du ciel (couverture nuageuse) exprimée en octas (de 0/8 à 8/8).

Vent moy 10 min donne le vent moyen sur les 10 minutes qui précèdent le relevé.

Vent raf 1h donne la rafale maximale mesurée dans l'heure qui précède le relevé.


Les données les plus anciennes remontent à avril 2014.

Les données présentées sur cette page proviennent des stations météo officielles. Les relevés sont effectués aux normes en vigueur (anémomètre à 10m de haut, thermomètre sous abri normalisé à 2m du sol...)

Météo 60 décline toute responsabilité en cas d'absence de données, d'erreurs, de mauvaise utilisation ou interprétation et n'est pas habilité à fournir des certificats intempéries.